Date,TemperatureHighF,TemperatureAvgF,TemperatureLowF,DewpointHighF,DewpointAvgF,DewpointLowF,HumidityHigh,HumidityAvg,HumidityLow,PressureMaxIn,PressureMinIn,WindSpeedMaxMPH,WindSpeedAvgMPH,GustSpeedMaxMPH,PrecipitationSumIn
2013-1-1,17.0,4.5,-11.0,3.0,-11.1,-26.0,59,48,43,30.25,30.08,13,3,13,0.00
2013-1-2,26.0,14.3,3.0,20.0,3.1,-8.0,78,60,46,30.11,29.96,13,5,20,0.00
2013-1-3,21.0,11.4,7.0,11.0,-2.8,-9.0,64,52,48,30.28,30.08,19,8,23,0.00
2013-1-4,29.0,17.4,8.0,10.0,4.1,-6.0,72,56,44,30.19,30.08,17,7,17,0.00
2013-1-5,33.0,17.9,8.0,15.0,8.0,0.0,80,65,48,30.14,29.84,21,6,22,0.00
2013-1-6,21.0,12.7,8.0,9.0,1.5,-1.0,75,61,47,30.22,30.02,13,4,17,0.00
2013-1-7,39.0,24.5,14.0,19.0,13.0,7.0,77,62,43,30.14,29.96,20,6,20,0.00
2013-1-8,39.0,28.1,12.0,27.0,18.7,6.0,83,68,50,29.99,29.81,19,6,23,0.00
2013-1-9,37.0,29.0,22.0,23.0,18.3,15.0,84,65,46,30.40,29.99,21,6,24,0.00
2013-1-10,38.0,31.7,25.0,34.0,23.0,17.0,98,72,43,30.37,29.75,13,4,17,0.12
2013-1-11,42.0,37.3,34.0,41.0,36.6,34.0,98,98,98,29.75,29.46,13,2,16,0.04
2013-1-12,41.0,22.0,9.0,40.0,9.6,-7.0,98,60,45,30.05,29.46,30,13,38,0.00
2013-1-13,12.0,6.8,2.0,-3.0,-8.0,-12.0,50,50,50,30.25,30.02,17,8,19,0.00
2013-1-14,23.0,11.9,4.0,5.0,-3.4,-10.0,54,49,44,30.40,30.25,14,4,17,0.00
2013-1-15,13.0,11.4,11.0,-1.0,-2.6,-3.0,52,52,52,30.31,30.28,6,3,8,0.00
2013-1-17,28.0,18.9,7.0,12.0,4.3,-5.0,68,52,40,30.40,30.31,10,3,19,0.00
2013-1-18,46.0,33.4,22.0,28.0,20.0,9.0,80,59,42,30.31,29.78,27,6,27,0.00
2013-1-19,44.0,30.1,6.0,28.0,17.6,-11.0,80,60,44,30.19,29.75,32,8,36,0.00
2013-1-20,12.0,6.0,0.0,-5.0,-10.3,-16.0,46,46,46,30.37,30.16,16,8,21,0.00
2013-1-21,3.0,-3.1,-10.0,-13.0,-18.6,-25.0,46,46,46,30.34,30.25,24,9,26,0.00
2013-1-22,10.0,1.6,-6.0,-7.0,-14.1,-21.0,46,46,46,30.37,30.22,12,3,17,0.00
2013-1-23,20.0,11.3,-1.0,4.0,-5.3,-18.0,58,46,44,30.52,30.14,23,7,27,0.00
2013-1-24,16.0,6.0,-4.0,-4.0,-11.6,-20.0,44,43,37,30.61,30.16,16,7,17,0.00
2013-1-25,26.0,14.5,4.0,9.0,-2.4,-15.0,57,46,37,30.25,29.99,26,8,28,0.00
2013-1-26,26.0,14.2,0.0,6.0,-5.1,-18.0,47,41,39,30.31,30.14,16,5,16,0.00
2013-1-27,33.0,29.7,26.0,32.0,20.2,6.0,96,70,42,30.14,29.75,16,4,19,0.04
2013-1-28,34.0,32.4,30.0,34.0,31.0,28.0,98,95,83,29.93,29.57,14,0,14,0.04
2013-1-29,36.0,35.4,30.0,35.0,34.4,18.0,98,97,65,29.63,29.52,17,5,17,0.00
2013-1-30,29.0,19.7,10.0,19.0,7.6,-3.0,75,59,48,29.72,29.52,25,10,27,0.00
2013-1-31,10.0,-1.2,-8.0,-3.0,-13.2,-20.0,55,55,55,30.25,29.72,21,10,27,0.00
2013-2-1,11.0,0.8,-11.0,-2.0,-11.7,-23.0,55,55,55,30.31,29.99,16,5,16,0.00
2013-2-2,17.0,12.2,8.0,1.0,-2.6,-5.0,55,51,44,30.14,29.93,13,5,13,0.00
2013-2-3,22.0,15.8,7.0,11.0,3.5,-4.0,74,58,43,30.08,29.84,20,7,27,0.00
2013-2-4,19.0,13.7,9.0,12.0,2.0,-5.0,73,59,46,30.02,29.84,19,6,19,0.00
2013-2-5,37.0,24.5,15.0,21.0,13.9,4.0,78,64,47,30.08,29.72,23,8,23,0.00
2013-2-6,36.0,27.5,17.0,29.0,17.9,9.0,80,68,45,30.11,29.90,17,5,20,0.00
2013-2-7,35.0,28.9,24.0,29.0,23.6,14.0,89,80,64,30.19,29.93,8,1,13,0.00
2013-2-8,32.0,26.5,24.0,17.0,13.9,11.0,68,59,46,30.34,30.19,12,3,14,0.00
2013-2-9,32.0,28.2,26.0,23.0,20.1,17.0,78,71,63,30.25,29.90,20,10,23,0.00
2013-2-10,38.0,33.3,30.0,37.0,30.7,23.0,98,90,74,29.90,29.25,20,7,23,0.28
2013-2-11,27.0,24.2,20.0,20.0,11.7,6.0,73,58,51,30.05,29.57,27,12,37,0.04
2013-2-12,37.0,27.1,19.0,21.0,14.8,6.0,79,60,45,30.08,29.84,19,5,19,0.00
2013-2-13,42.0,31.6,21.0,29.0,22.3,17.0,86,70,50,29.84,29.57,14,1,14,0.00
2013-2-14,37.0,31.3,18.0,27.0,18.2,1.0,77,59,43,30.14,29.60,19,9,23,0.00
2013-2-15,20.0,14.5,9.0,2.0,-1.5,-7.0,55,48,43,30.28,30.14,20,8,21,0.00
2013-2-16,27.0,17.5,9.0,9.0,1.9,-8.0,66,50,42,30.25,30.11,10,2,13,0.00
2013-2-17,34.0,23.2,14.0,15.0,9.9,5.0,72,57,42,30.11,29.66,20,6,26,0.00
2013-2-18,38.0,25.8,6.0,26.0,13.2,-7.0,74,58,50,29.78,29.54,27,8,27,0.00
2013-2-19,8.0,2.7,-3.0,-5.0,-10.2,-15.0,54,54,54,30.31,29.81,27,12,36,0.00
2013-2-20,22.0,7.4,-5.0,3.0,-6.9,-17.0,54,51,40,30.40,30.31,12,4,15,0.00
2013-2-21,24.0,14.5,6.0,13.0,1.0,-7.0,76,54,45,30.37,29.96,16,7,26,0.00
2013-2-22,33.0,23.3,19.0,16.0,13.1,10.0,80,66,43,29.96,29.81,15,7,19,0.04
2013-2-23,31.0,18.5,1.0,11.0,4.9,-12.0,72,56,41,29.96,29.87,13,5,14,0.04
2013-2-24,31.0,18.2,-2.0,15.0,4.3,-15.0,61,54,47,30.08,29.96,12,3,13,0.00
2013-2-25,44.0,28.8,21.0,22.0,18.2,15.0,84,66,39,30.11,29.99,9,3,9,0.00
2013-2-26,35.0,27.9,21.0,20.0,17.6,15.0,87,66,50,29.99,29.78,16,7,23,0.00
2013-2-27,35.0,30.3,27.0,23.0,18.5,16.0,80,62,48,29.96,29.78,16,10,17,0.00
2013-2-28,29.0,25.3,22.0,19.0,16.2,14.0,73,67,64,30.02,29.96,13,9,13,0.00
2013-3-3,34.0,26.6,19.0,10.0,7.1,5.0,55,43,34,30.11,29.96,17,8,17,0.00
2013-3-4,29.0,25.5,22.0,27.0,18.3,6.0,93,75,45,29.99,29.87,24,10,24,0.00
2013-3-5,32.0,27.1,23.0,22.0,17.2,13.0,83,67,51,30.22,29.93,15,5,15,0.00
2013-3-6,30.0,20.3,2.0,15.0,7.5,-8.0,73,58,43,30.40,30.22,13,6,14,0.00
2013-3-7,29.0,14.1,-3.0,13.0,2.4,-13.0,75,60,46,30.37,30.28,13,4,16,0.00
2013-3-8,38.0,28.1,15.0,26.0,17.8,9.0,80,66,48,30.31,30.08,16,7,20,0.04
2013-3-9,36.0,35.0,33.0,35.0,32.5,26.0,96,91,74,30.11,29.69,18,6,20,0.67
2013-3-10,35.0,33.2,30.0,34.0,31.4,27.0,98,93,75,29.84,29.69,22,9,23,0.12
2013-3-11,34.0,27.9,19.0,29.0,21.0,8.0,98,77,50,29.87,29.69,0,0,0,0.04
2013-3-12,32.0,24.5,18.0,19.0,11.1,7.0,70,57,42,30.16,29.84,21,7,24,0.00
2013-3-13,31.0,19.6,10.0,11.0,6.2,1.0,71,56,42,30.37,30.16,13,6,18,0.00
2013-3-14,44.0,29.9,17.0,21.0,16.7,10.0,78,59,40,30.28,30.02,14,4,14,0.00
2013-3-15,43.0,33.4,25.0,29.0,24.0,19.0,83,70,46,30.02,29.75,13,4,13,0.00
2013-3-16,33.0,25.9,18.0,31.0,15.2,3.0,95,66,44,30.19,29.81,14,8,19,0.00
2013-3-17,32.0,21.7,10.0,17.0,6.5,-3.0,60,52,43,30.19,29.87,19,8,26,0.00
2013-3-18,33.0,24.8,13.0,26.0,12.9,-1.0,86,61,43,29.90,29.63,23,12,29,0.00
2013-3-19,26.0,15.2,7.0,6.0,-0.8,-7.0,56,49,40,30.19,29.87,23,12,27,0.00
2013-3-20,22.0,12.9,6.0,1.0,-5.0,-10.0,46,44,38,30.22,30.11,23,11,24,0.00
2013-3-21,28.0,14.1,2.0,6.0,-3.5,-14.0,54,45,37,30.14,30.02,9,3,12,0.00
2013-3-22,32.0,18.7,4.0,10.0,1.7,-9.0,60,47,39,30.08,30.02,9,2,9,0.00
2013-3-23,39.0,26.9,14.0,16.0,10.7,6.0,76,51,37,30.14,30.05,9,4,10,0.00
2013-3-24,34.0,28.2,24.0,21.0,16.3,13.0,74,61,51,30.08,29.90,15,8,16,0.00
2013-3-25,35.0,28.8,23.0,17.0,12.5,10.0,67,50,42,30.19,29.96,16,10,19,0.00
2013-3-26,40.0,27.7,19.0,18.0,15.5,12.0,79,61,40,30.28,30.19,10,4,13,0.00
2013-3-27,42.0,29.0,18.0,25.0,16.4,13.0,86,62,39,30.34,30.28,9,2,12,0.00
2013-3-28,44.0,33.0,21.0,23.0,18.4,14.0,79,56,40,30.34,30.25,11,4,13,0.00
2013-3-29,55.0,40.4,29.0,31.0,24.0,16.0,68,53,38,30.28,30.11,14,4,14,0.00
2013-3-30,54.0,43.7,37.0,43.0,30.8,-99.9,85,63,50,30.11,29.87,13,7,17,0.00
2013-3-31,41.0,34.5,26.0,32.0,22.1,9.0,94,63,39,30.05,29.84,27,10,27,0.00
2013-4-1,34.0,26.3,19.0,13.0,8.9,6.0,57,48,39,30.25,30.05,17,9,23,0.00
2013-4-2,37.0,28.2,21.0,16.0,12.5,8.0,79,53,36,30.34,30.25,19,5,20,0.00
2013-4-3,46.0,31.3,20.0,24.0,17.0,12.0,86,58,36,30.40,30.19,16,4,21,0.00
2013-4-4,53.0,41.1,33.0,31.0,21.7,15.0,58,46,36,30.19,30.05,21,7,21,0.00
2013-4-5,47.0,37.8,28.0,23.0,20.6,16.0,73,51,38,30.22,29.90,13,7,23,0.00
2013-4-6,63.0,45.9,37.0,44.0,29.9,18.0,80,55,36,29.90,29.52,16,10,27,0.08
2013-4-7,55.0,42.6,34.0,36.0,30.3,26.0,81,63,43,29.96,29.72,14,4,14,0.08
2013-4-8,61.0,50.3,43.0,44.0,40.4,34.0,91,70,50,29.96,29.63,17,4,17,0.16
2013-4-9,42.0,38.4,35.0,38.0,35.6,33.0,98,90,78,30.05,29.81,23,11,31,2.09
2013-4-10,36.0,35.6,35.0,35.0,34.6,34.0,98,98,98,29.99,29.99,8,2,8,2.09
2013-4-12,32.0,31.5,31.0,22.0,21.3,20.0,70,66,64,29.84,29.84,0,0,0,0.04
2013-4-13,45.0,35.1,29.0,25.0,20.6,17.0,74,57,39,29.93,29.84,4,0,4,0.00
2013-4-14,49.0,38.0,32.0,48.0,33.0,20.0,95,83,58,29.93,29.43,6,0,13,1.26
2013-4-15,45.0,38.7,33.0,36.0,23.0,19.0,80,54,41,30.02,29.60,20,1,21,0.28
2013-4-16,50.0,38.8,30.0,26.0,22.7,18.0,73,53,37,30.28,29.99,8,0,10,0.00
2013-4-17,39.0,37.5,35.0,37.0,29.3,21.0,97,74,53,30.28,29.78,8,1,13,0.63
2013-4-18,38.0,34.9,31.0,36.0,33.2,25.0,98,94,78,29.81,29.46,5,0,5,0.51
2013-4-19,37.0,32.6,29.0,26.0,21.0,16.0,82,63,43,29.99,29.52,19,0,19,0.04
2013-4-20,46.0,34.7,24.0,22.0,15.8,10.0,76,49,31,30.28,29.99,10,2,13,0.00
2013-4-21,61.0,44.6,34.0,46.0,32.0,17.0,88,63,39,30.31,30.05,19,5,23,0.24
2013-4-22,52.0,43.2,33.0,48.0,40.0,32.0,96,89,78,30.16,29.96,20,4,20,0.28
2013-4-23,42.0,34.8,30.0,32.0,22.5,14.0,96,63,39,30.14,30.02,19,6,20,0.24
2013-4-24,54.0,38.8,25.0,36.0,24.4,19.0,85,60,30,30.11,29.93,24,10,38,0.00
2013-4-25,61.0,41.5,28.0,29.0,21.6,16.0,75,47,26,30.25,30.02,17,9,30,0.00
2013-4-26,80.0,58.5,44.0,42.0,32.6,23.0,66,39,21,30.16,30.05,26,9,26,0.00
2013-4-27,72.0,58.2,43.0,47.0,40.4,36.0,93,56,29,30.16,29.99,13,3,16,0.00
2013-4-28,81.0,61.5,42.0,42.0,39.4,37.0,86,49,23,29.99,29.72,19,4,19,0.00
2013-4-29,77.0,64.1,54.0,55.0,47.4,41.0,94,58,33,29.81,29.60,14,2,14,0.08
2013-4-30,79.0,65.8,49.0,54.0,46.3,35.0,95,54,25,29.96,29.52,19,7,26,0.75
2013-5-1,50.0,43.0,34.0,49.0,35.3,29.0,96,75,59,30.43,29.93,19,11,27,0.75
2013-5-2,35.0,33.3,32.0,34.0,32.1,29.0,98,95,84,30.46,30.37,23,6,24,0.24
2013-5-3,33.0,32.5,31.0,32.0,29.4,26.0,98,88,75,30.37,30.05,19,9,19,0.08
2013-5-4,46.0,39.2,33.0,36.0,32.4,30.0,98,79,56,30.11,30.02,21,8,21,0.12
2013-5-5,66.0,49.7,38.0,45.0,38.3,32.0,85,66,44,30.14,30.08,12,6,12,0.04
2013-5-6,80.0,58.1,44.0,44.0,41.1,35.0,95,59,23,30.11,30.02,11,3,11,0.00
2013-5-7,85.0,63.2,43.0,50.0,41.3,36.0,87,51,21,30.11,29.99,10,3,13,0.00
2013-5-8,82.0,64.4,48.0,50.0,43.0,38.0,82,50,23,30.02,29.96,14,3,14,0.00
2013-5-9,60.0,56.1,48.0,57.0,51.5,44.0,95,85,66,29.99,29.90,19,5,22,0.43
2013-5-10,73.0,52.6,42.0,45.0,35.7,-99.9,87,59,27,30.08,29.96,16,6,17,0.04
2013-5-11,57.0,48.5,40.0,39.0,23.7,-99.9,67,40,26,30.16,29.90,31,12,36,0.00
2013-5-12,64.0,46.0,32.0,25.0,19.3,15.0,54,36,21,30.22,30.11,14,5,20,0.00
2013-5-13,77.0,56.0,34.0,38.0,29.0,19.0,68,38,23,30.14,29.78,27,6,27,0.00
2013-5-14,103.0,77.2,52.0,48.0,41.5,29.0,72,33,14,29.78,29.49,34,7,34,0.00
2013-5-15,86.0,67.5,56.0,39.0,35.2,28.0,49,31,19,29.96,29.69,15,5,15,0.00
2013-5-16,88.0,64.1,47.0,54.0,21.1,-99.9,76,38,18,29.96,29.81,10,2,14,0.00
2013-5-17,69.0,61.0,53.0,59.0,50.2,-99.9,96,77,62,29.99,29.87,15,4,23,1.46
2013-5-18,87.0,68.9,57.0,56.0,52.3,49.0,82,59,30,29.99,29.81,15,3,16,0.04
2013-5-19,82.0,69.4,62.0,69.0,59.0,54.0,96,72,41,29.84,29.57,16,4,21,4.33
2013-5-20,82.0,67.5,61.0,62.0,53.9,47.0,98,66,31,29.66,29.54,21,7,27,4.09
2013-5-21,68.0,62.3,59.0,56.0,47.9,42.0,87,61,41,29.69,29.54,18,5,21,0.00
2013-5-22,65.0,58.0,52.0,55.0,50.0,44.0,97,76,48,29.87,29.63,10,4,14,0.16
2013-5-23,68.0,55.3,47.0,49.0,36.8,27.0,88,53,24,30.31,29.87,14,8,16,0.08
2013-5-24,69.0,55.8,40.0,43.0,34.3,28.0,70,46,28,30.40,30.22,16,4,16,0.20
2013-5-25,55.0,53.0,50.0,47.0,42.3,38.0,85,67,55,30.28,30.22,23,7,23,0.28
2013-5-26,56.0,51.2,47.0,49.0,44.0,38.0,93,76,65,30.22,30.02,20,7,21,0.63
2013-5-27,60.0,55.9,53.0,57.0,54.0,50.0,98,94,83,30.05,29.81,13,5,16,0.35
2013-5-28,72.0,60.6,55.0,58.0,55.2,54.0,98,85,53,29.81,29.69,14,2,16,0.04
2013-5-29,78.0,66.5,60.0,63.0,59.0,54.0,97,79,47,29.81,29.66,17,4,17,0.20
2013-5-30,76.0,68.9,63.0,63.0,57.6,52.0,89,69,44,29.72,29.57,23,7,26,0.20
2013-5-31,82.0,68.4,55.0,59.0,53.5,40.0,92,64,25,29.69,29.57,18,8,19,1.22
2013-6-1,76.0,62.9,53.0,58.0,50.2,41.0,95,67,34,29.90,29.57,19,4,19,1.22
2013-6-2,74.0,55.7,47.0,42.0,35.8,32.0,66,49,27,30.11,29.90,12,4,12,0.00
2013-6-3,75.0,59.9,45.0,45.0,38.4,34.0,86,49,26,30.11,29.99,12,3,13,0.00
2013-6-4,61.0,57.2,53.0,52.0,46.1,38.0,93,68,43,30.11,29.99,15,5,15,0.67
2013-6-5,68.0,59.4,53.0,56.0,50.9,44.0,94,75,46,30.08,29.93,6,0,7,0.31
2013-6-6,65.0,58.4,55.0,55.0,48.3,43.0,92,70,46,30.02,29.93,9,2,9,0.00
2013-6-7,72.0,59.1,54.0,50.0,46.2,40.0,82,64,35,30.05,29.93,13,2,13,0.00
2013-6-8,71.0,60.7,51.0,55.0,47.4,42.0,89,65,36,29.96,29.87,12,3,16,0.16
2013-6-9,72.0,63.4,58.0,59.0,52.7,46.0,90,69,50,29.90,29.72,17,8,17,0.39
2013-6-10,82.0,66.0,58.0,59.0,54.7,49.0,92,70,32,29.90,29.81,5,0,6,0.04
2013-6-11,94.0,72.5,59.0,61.0,56.5,52.0,93,62,27,29.93,29.81,9,1,9,0.00
2013-6-12,80.0,71.5,66.0,67.0,63.7,61.0,96,77,53,29.96,29.69,16,3,16,2.68
2013-6-13,83.0,66.6,59.0,62.0,49.8,43.0,94,58,25,30.08,29.90,6,0,8,1.38
2013-6-14,77.0,64.7,58.0,56.0,52.3,49.0,86,66,39,30.11,29.90,10,2,13,0.00
2013-6-15,78.0,68.9,64.0,64.0,59.9,55.0,92,74,50,29.99,29.84,13,4,13,0.31
2013-6-16,85.0,72.4,59.0,63.0,50.9,41.0,93,55,22,29.99,29.90,8,2,8,0.08
2013-6-17,87.0,72.7,60.0,52.0,47.2,39.0,71,44,22,29.99,29.90,17,2,17,0.00
2013-6-18,79.0,66.7,58.0,62.0,52.8,48.0,95,64,34,30.08,29.99,11,3,12,0.12
2013-6-19,87.0,68.1,60.0,53.0,50.6,47.0,73,58,26,30.11,29.99,9,3,12,0.04
2013-6-20,89.0,89.0,89.0,53.0,53.0,53.0,29,29,29,29.96,29.96,4,4,20,0.00
2013-6-22,82.0,75.0,71.0,65.0,62.7,58.0,80,66,56,29.99,29.90,14,9,14,0.16
2013-6-23,84.0,70.0,67.0,67.0,62.8,58.0,94,79,44,29.96,29.78,17,8,20,1.10
2013-6-24,75.0,69.1,65.0,67.0,63.8,60.0,92,83,67,29.99,29.84,17,1,17,0.79
2013-6-25,85.0,74.6,67.0,71.0,65.1,61.0,91,74,48,29.87,29.75,6,0,6,0.16
2013-6-26,87.0,75.2,71.0,71.0,65.3,56.0,91,72,45,29.87,29.72,6,1,8,0.00
2013-6-27,91.0,73.1,65.0,63.0,56.3,46.0,85,60,23,29.90,29.84,9,0,9,0.00
2013-6-28,78.0,69.9,64.0,57.0,51.5,49.0,77,53,38,29.84,29.78,10,4,10,0.00
2013-6-29,69.0,63.8,61.0,61.0,56.7,48.0,94,79,48,29.96,29.78,13,2,13,0.12
2013-6-30,80.0,65.1,55.0,53.0,44.9,39.0,81,52,23,30.14,29.96,10,3,10,0.04
2013-7-1,85.0,68.8,57.0,55.0,47.7,43.0,78,51,24,30.19,30.14,12,2,16,0.00
2013-7-2,86.0,69.3,59.0,55.0,47.6,37.0,84,54,19,30.16,30.08,12,2,12,0.00
2013-7-3,87.0,69.7,58.0,55.0,48.7,42.0,83,52,22,30.11,29.99,10,1,10,0.00
2013-7-4,88.0,74.0,61.0,53.0,49.2,45.0,71,46,24,30.05,29.96,21,4,21,0.00
2013-7-5,90.0,75.0,63.0,53.0,51.2,49.0,68,47,26,30.02,29.93,22,6,23,0.00
2013-7-6,93.0,72.4,67.0,56.0,54.3,52.0,67,55,26,29.96,29.90,11,4,13,0.00
2013-7-7,80.0,72.4,71.0,60.0,59.3,58.0,68,64,47,29.96,29.90,10,2,17,0.00
2013-7-8,78.0,71.2,69.0,73.0,66.5,-99.9,94,89,43,30.02,29.90,10,0,17,0.16
2013-7-9,84.0,74.6,69.0,74.0,66.3,61.0,94,76,56,29.99,29.90,23,2,23,0.63
2013-7-10,85.0,69.9,64.0,61.0,49.6,-99.9,81,55,26,30.08,29.93,8,2,19,0.04
2013-7-11,87.0,69.6,58.0,62.0,50.7,44.0,90,58,25,30.16,30.05,9,2,9,0.00
2013-7-12,86.0,67.3,64.0,53.0,51.7,50.0,66,58,30,30.11,30.02,10,3,14,0.00
2013-7-13,73.0,65.4,62.0,61.0,56.4,48.0,93,74,45,30.19,30.02,23,5,23,0.24
2013-7-14,79.0,67.2,64.0,59.0,57.1,55.0,76,70,50,30.22,30.11,10,1,10,0.12
2013-7-15,88.0,68.8,64.0,64.0,58.2,56.0,83,70,39,30.28,30.22,4,0,6,0.00
2013-7-16,88.0,75.3,72.0,69.0,65.7,60.0,84,73,39,30.28,30.22,9,1,9,0.00
2013-7-17,97.0,74.9,72.0,70.0,66.2,56.0,87,76,26,30.31,30.25,0,0,0,0.00
2013-7-18,78.0,74.8,72.0,65.0,64.4,63.0,78,70,63,30.19,30.14,6,1,6,0.00
2013-7-19,87.0,74.8,69.0,64.0,60.0,52.0,69,61,30,29.93,29.84,5,1,5,0.00
2013-7-20,73.0,65.8,63.0,59.0,54.4,-99.9,82,70,55,29.96,29.93,0,0,0,0.00
2013-7-21,82.0,69.2,64.0,68.0,59.8,57.0,90,73,47,29.96,29.84,10,1,10,1.14
2013-7-22,86.0,70.5,64.0,72.0,61.6,55.0,94,75,42,29.90,29.66,14,2,14,0.43
2013-7-23,80.0,65.8,60.0,56.0,50.0,42.0,82,60,29,30.05,29.84,8,1,8,0.43
2013-7-24,80.0,65.9,54.0,56.0,49.3,44.0,92,60,30,30.14,30.05,6,0,6,0.00
2013-7-25,75.0,63.0,59.0,63.0,57.0,52.0,94,81,50,30.05,29.99,8,1,8,0.59
2013-7-26,72.0,65.5,62.0,64.0,59.8,44.0,94,84,42,30.05,29.96,10,1,10,0.59
2013-7-27,66.0,56.4,49.0,47.0,42.2,36.0,83,61,34,30.11,29.99,9,3,9,0.00
2013-7-28,72.0,58.6,49.0,50.0,42.6,39.0,79,58,33,30.08,29.99,6,2,6,0.00
2013-7-29,78.0,61.7,50.0,53.0,46.9,43.0,92,64,31,30.16,30.08,4,0,5,0.00
2013-7-30,73.0,65.3,61.0,59.0,53.3,48.0,78,65,54,30.14,30.08,6,0,6,0.00
2013-7-31,73.0,65.7,63.0,64.0,59.3,49.0,92,81,44,30.14,30.05,4,0,4,0.00
2013-8-1,86.0,68.7,57.0,62.0,52.9,44.0,81,61,29,30.11,29.90,7,2,10,0.00
2013-8-2,80.0,69.2,62.0,61.0,52.0,43.0,81,58,27,30.08,29.90,6,0,10,0.00
2013-8-3,79.0,65.8,53.0,56.0,47.0,41.0,91,57,28,30.22,30.08,6,2,6,0.00
2013-8-4,77.0,57.3,52.0,57.0,49.1,44.0,90,77,32,30.25,30.11,8,4,8,0.00
2013-8-5,76.0,66.0,60.0,67.0,60.7,48.0,96,84,57,30.08,29.87,10,6,10,2.01
2013-8-6,83.0,69.2,62.0,67.0,61.3,56.0,95,79,42,29.90,29.78,10,10,10,0.20
2013-8-7,73.0,65.7,59.0,62.0,55.9,47.0,87,71,46,30.08,29.81,10,10,10,0.00
2013-8-8,79.0,61.1,53.0,56.0,50.8,45.0,92,72,33,30.11,30.02,10,6,10,0.00
2013-8-9,78.0,67.2,59.0,64.0,53.4,44.0,93,65,33,30.16,30.02,11,1,14,0.20
2013-8-10,81.0,65.4,53.0,56.0,49.6,45.0,91,61,33,30.22,30.14,8,1,8,0.20
2013-8-11,74.0,66.6,64.0,65.0,59.7,53.0,93,79,55,30.14,30.05,3,0,3,0.51
2013-8-12,77.0,68.2,62.0,66.0,54.9,45.0,95,66,34,30.08,30.05,6,0,6,0.12
2013-8-13,73.0,62.0,55.0,54.0,43.7,-99.9,86,58,31,30.22,30.08,13,1,13,0.00
2013-8-14,78.0,62.4,50.0,53.0,45.6,39.0,91,60,26,30.25,30.16,9,5,9,0.00
2013-8-15,77.0,54.9,50.0,54.0,26.5,-99.9,89,55,31,30.19,30.14,10,3,16,0.00
2013-8-21,81.0,73.3,70.0,68.0,62.8,60.0,82,70,59,30.02,29.96,11,9,11,0.00
2013-8-22,82.0,71.7,67.0,68.0,63.6,57.0,91,77,44,30.14,30.02,6,6,6,0.31
2013-8-23,77.0,68.2,63.0,66.0,62.1,59.0,95,82,55,30.19,30.11,6,6,6,0.04
2013-8-24,86.0,72.0,67.0,66.0,57.4,-99.9,71,63,50,30.19,30.08,6,6,6,0.00
2013-8-25,83.0,75.4,70.0,67.0,64.6,62.0,80,69,54,30.16,30.08,6,6,6,0.00
2013-8-26,83.0,75.1,71.0,68.0,65.0,64.0,82,71,54,30.11,29.96,6,6,6,0.00
2013-8-27,81.0,76.9,76.0,65.0,62.5,61.0,67,61,51,29.96,29.90,6,6,6,0.00
2013-8-28,86.0,80.2,77.0,71.0,70.3,68.0,80,72,56,30.05,30.02,0,0,0,0.00
2013-8-29,83.0,75.8,74.0,72.0,69.3,62.0,91,81,50,30.08,29.96,0,0,0,0.00
2013-9-3,77.0,56.8,44.0,52.0,46.5,42.0,93,73,32,30.16,30.08,0,0,0,0.00
2013-9-4,88.0,63.9,56.0,62.0,54.2,51.0,86,73,30,30.16,30.08,0,0,0,0.00
2013-9-5,83.0,69.1,64.0,64.0,60.9,57.0,83,76,47,30.25,30.16,9,2,9,0.00
2013-9-6,81.0,67.5,64.0,64.0,60.0,53.0,83,78,38,30.19,29.99,9,4,12,0.00
2013-9-7,89.0,71.4,66.0,68.0,56.0,-99.9,82,64,42,29.99,29.93,8,5,8,0.00
2013-9-8,73.0,70.7,67.0,66.0,61.5,57.0,82,73,60,30.08,29.96,13,9,13,0.00
2013-9-9,94.0,72.9,67.0,68.0,62.9,51.0,91,77,25,29.93,29.78,13,11,13,0.00
2013-9-11,75.0,67.7,63.0,62.0,58.3,50.0,83,73,47,30.11,30.05,0,0,0,0.00
2013-9-12,73.0,61.5,53.0,53.0,43.0,38.0,73,53,31,30.25,30.11,0,0,0,0.00
2013-9-13,68.0,55.6,44.0,44.0,38.7,35.0,86,57,31,30.31,30.16,0,0,0,0.00
2013-9-14,75.0,54.9,46.0,49.0,35.9,-99.9,74,56,26,30.16,29.93,0,0,0,0.08
2013-9-15,62.0,56.6,54.0,54.0,51.2,48.0,94,83,63,30.31,29.90,0,0,0,0.43
2013-9-16,60.0,49.6,44.0,49.0,45.1,42.0,93,85,58,30.43,30.31,0,0,0,0.04
2013-9-17,61.0,54.8,48.0,59.0,49.0,39.0,94,81,65,30.31,30.05,8,6,10,0.00
2013-9-18,63.0,62.6,61.0,62.0,61.1,59.0,95,94,93,30.05,29.93,8,8,8,0.12
2013-9-19,74.0,70.1,66.0,65.0,63.4,60.0,85,79,69,29.90,29.78,8,8,8,0.04
2013-9-20,65.0,55.9,51.0,59.0,46.4,42.0,81,71,65,30.02,29.87,8,8,8,0.04
2013-9-21,55.0,46.8,44.0,45.0,37.6,-99.9,88,76,58,30.05,29.96,8,8,8,0.00
2013-9-28,68.0,55.1,47.0,58.0,44.8,-99.9,91,75,62,30.08,29.81,17,16,17,0.12
2013-9-29,73.0,56.9,42.0,43.0,39.0,34.0,91,59,25,30.11,29.90,17,12,20,0.04
2013-9-30,74.0,62.1,51.0,44.0,39.7,36.0,72,48,26,29.93,29.72,13,7,13,0.00
2013-10-1,58.0,53.3,50.0,40.0,38.9,37.0,69,59,46,30.02,29.99,0,0,0,0.00
2013-10-2,78.0,60.8,42.0,46.0,37.5,31.0,82,49,21,30.11,29.87,14,2,21,0.00
2013-10-3,75.0,63.2,59.0,60.0,55.6,49.0,93,77,55,29.90,29.78,12,4,15,1.18
2013-10-4,67.0,62.2,60.0,63.0,60.3,58.0,96,93,78,29.93,29.75,10,8,10,0.35
2013-10-5,66.0,56.7,46.0,64.0,50.0,31.0,94,80,35,29.87,29.78,0,0,0,0.08
2013-10-6,52.0,47.9,46.0,46.0,37.1,31.0,93,67,50,29.87,29.72,10,3,10,0.00
2013-10-7,66.0,50.1,41.0,46.0,39.0,33.0,93,71,29,30.05,29.87,8,2,16,0.00
2013-10-8,76.0,61.3,47.0,40.0,36.6,34.0,71,44,23,30.05,29.96,19,5,21,0.00
2013-10-9,73.0,58.6,50.0,43.0,39.0,35.0,72,51,28,30.11,30.02,10,2,13,0.00
2013-10-10,74.0,64.1,51.0,44.0,40.5,36.0,60,44,28,30.11,29.93,10,3,16,0.00
2013-10-11,59.0,55.0,54.0,50.0,47.2,45.0,80,75,67,29.93,29.90,8,3,13,0.00
2013-10-12,64.0,53.2,46.0,54.0,27.6,-99.9,73,42,26,30.19,29.78,22,3,22,0.00
2013-10-13,61.0,48.2,35.0,31.0,26.4,22.0,73,45,26,30.46,30.22,6,0,9,0.00
2013-10-14,61.0,50.7,38.0,40.0,30.6,26.0,69,48,28,30.40,29.93,12,4,16,0.08
2013-10-15,55.0,49.6,47.0,53.0,43.7,37.0,95,81,64,29.93,29.75,20,6,23,0.67
2013-10-18,51.0,43.4,34.0,36.0,28.7,20.0,83,59,32,30.02,29.87,10,4,13,0.00
2013-10-19,48.0,35.7,31.0,38.0,24.5,-99.9,87,68,51,29.90,29.72,9,2,16,0.00
2013-10-20,48.0,36.3,28.0,39.0,27.2,19.0,79,70,48,29.84,29.69,14,3,14,0.00
2013-10-21,43.0,37.1,26.0,28.0,18.3,14.0,70,48,36,30.02,29.90,21,5,21,0.00
2013-10-22,41.0,33.0,26.0,23.0,20.2,17.0,75,60,41,30.05,29.96,6,0,13,0.00
2013-10-23,39.0,34.1,30.0,22.0,18.6,13.0,65,53,41,30.11,30.02,10,2,10,0.00
2013-10-24,44.0,35.5,29.0,22.0,17.5,14.0,70,49,36,30.34,30.11,13,2,13,0.00
2013-10-25,55.0,46.4,24.0,28.0,24.6,18.0,80,44,34,30.34,29.90,31,12,31,0.00
2013-10-26,49.0,42.5,35.0,29.0,20.4,-99.9,57,43,36,30.11,29.87,20,4,20,0.00
2013-10-27,60.0,42.8,27.0,28.0,23.6,18.0,74,50,29,30.08,29.81,16,3,19,0.00
2013-10-28,45.0,38.3,34.0,25.0,20.7,-99.9,70,53,40,30.34,30.05,16,5,16,0.00
2013-10-29,56.0,41.6,38.0,31.0,24.0,21.0,54,49,38,30.34,30.11,9,4,12,0.00
2013-10-30,64.0,52.9,49.0,55.0,47.8,34.0,97,83,48,30.05,29.69,10,3,10,0.00